TIME,DELAY(SENSOR),PRES,OXYGEN,RAWTEMP,T(OPTODE),TCPHASE,FLUOR,BETA(BETA700),BETA(BETA412),BETA(BETA440),CDOM,C(CSC),ED(ED412.20),ED(ED444.00),ED(ED489.60),ED(ED554.30),LU(LU412.10),LU(LU443.90),LU(LU489.70),LU(LU554.70),COMP,TILTX,TILTY,CHECK
1350270961,5809,887.6699829101562000,34.3825111389160160,555.7211303710938000,4.6184310913085940,56.3407592773437500,55,102,100,78,81,15546,0,0,0,0,2147123364,2147770249,2147572233,2147575698,3451,3,13,62287
1350274557,5808,961.9500122070312000,39.6155204772949200,563.5701293945312000,4.3751997947692870,55.6024208068847660,55,100,100,78,83,15547,0,0,0,0,2147125851,2147773440,2147572699,2147570852,2706,3,13,2893
1350278157,5808,968.5100097656250000,39.5460586547851560,563.9368896484375000,4.3638191223144530,55.6199111938476560,53,100,99,78,81,15548,0,0,0,0,2147122742,2147772032,2147569965,2147572141,172,3,13,9707
1350281757,5811,1002.2500000000000000,39.5089607238769500,566.0194702148438000,4.2991890907287600,55.6439514160156250,56,98,99,78,82,15541,0,0,0,0,2147125193,2147775899,2147575131,2147571876,1031,3,13,4913
1350285357,5809,1005.2299804687500000,39.7203903198242200,566.2780761718750000,4.2911620140075680,55.6162109375000000,55,98,100,78,82,15546,0,0,0,0,2147122861,2147770404,2147571657,2147569892,3584,3,13,52614
1350288957,5809,1002.2500000000000000,39.7127189636230500,566.6865234375000000,4.2784819602966310,55.6265983581543000,55,105,100,78,83,15543,0,0,0,0,2147123675,2147772461,2147575122,2147570706,3220,3,13,12144
1350292557,5810,1004.1099853515625000,39.4608688354492200,566.6912841796875000,4.2783322334289550,55.6601409912109400,55,97,101,77,83,15545,0,0,0,0,2147123894,2147771712,2147573805,2147572525,3558,3,13,53963
1350296157,5811,1012.4099731445312000,39.1400299072265600,566.5703735351562000,4.2820892333984375,55.7111206054687500,55,98,101,77,83,15542,0,0,0,0,2147126582,2147775908,2147572827,2147568868,2,3,12,61359
1350299757,5808,1011.4699707031250000,38.9234695434570300,566.1768188476562000,4.2943081855773930,55.7395210266113300,55,98,99,78,83,15543,0,0,0,0,2147124425,2147777188,2147572397,2147573558,3589,3,13,24731
1350303357,5812,1009.9600219726562000,39.1341400146484400,566.7316284179688000,4.2770819664001465,55.7113304138183600,55,98,100,79,82,15541,0,0,0,0,2147125714,2147777097,2147572187,2147570358,424,3,13,54724
1350306957,5811,1018.3599853515625000,39.0849304199218750,566.7039794921875000,4.2779412269592285,55.7168693542480500,56,98,102,77,82,15541,0,0,0,0,2147121956,2147774985,2147575981,2147570596,162,3,13,51440
1350310557,5808,1011.5599975585938000,39.1008682250976560,566.7288208007812000,4.2771701812744140,55.7158889770507800,55,99,101,77,82,15539,0,0,0,0,2147124443,2147774281,2147574601,2147568036,437,3,13,62720
1350314157,5810,1006.2600097656250000,38.7699394226074200,567.2772216796875000,4.2601428031921390,55.7693901062011700,55,98,100,78,82,15541,0,0,0,0,2147122596,2147770166,2147572370,2147567963,285,3,13,23570
1350317757,5811,1013.2700195312500000,39.1345596313476560,566.8978271484375000,4.2719211578369140,55.7156600952148440,55,100,101,80,84,15542,0,0,0,0,2147124672,2147771190,2147573257,2147570569,125,3,13,31590
1350321357,5811,1013.5900268554688000,38.6443405151367200,566.9287719726562000,4.2709579467773440,55.7890014648437500,55,99,101,77,82,15543,0,0,0,0,2147122240,2147769197,2147575853,2147568073,178,3,13,36420
1350324957,5811,1015.9500122070312000,39.1763114929199200,567.1602172851562000,4.2637767791748050,55.7094116210937500,55,98,100,79,82,15539,0,0,0,0,2147125138,2147777590,2147570843,2147569481,183,3,13,34536
1350328557,5809,1012.5800170898438000,38.5891494750976560,567.6912841796875000,4.2472801208496090,55.8057289123535160,54,99,99,79,82,15542,0,0,0,0,2147124955,2147774208,2147569280,2147570779,306,3,13,56492
1350332157,5807,1008.5900268554688000,39.1373901367187500,567.8594970703125000,4.2420578002929690,55.7195816040039060,55,98,101,78,83,15540,0,0,0,0,2147127954,2147770322,2147572068,2147572141,532,3,13,13009
1350335757,5807,1013.0599975585938000,39.5290718078613300,568.1812744140625000,4.2320652008056640,55.6677207946777340,56,97,101,79,82,15542,0,0,0,0,2147126381,2147776301,2147572105,2147569709,127,3,13,30043
1350339357,5810,1016.0200195312500000,39.8661804199218750,568.5360107421875000,4.2210459709167480,55.6181602478027340,56,97,100,77,83,15538,0,0,0,0,2147123291,2147770953,2147568265,2147572836,508,3,13,14464
1350342957,5809,1013.6099853515625000,39.6569290161132800,568.7230224609375000,4.2152390480041500,55.6530914306640600,55,98,100,77,81,15538,0,0,0,0,2147123693,2147772836,2147569261,2147570349,230,3,13,10410
1350346557,5810,1021.8599853515625000,39.4633903503418000,567.3421020507812000,4.2581272125244140,55.6708602905273440,55,98,99,77,83,15539,0,0,0,0,2147122477,2147773348,2147573019,2147571264,3533,3,13,3924
1350350157,5809,1018.6799926757812000,39.2774887084960940,567.7501831054688000,4.2454509735107420,55.7025184631347660,56,99,100,78,83,15535,0,0,0,0,2147125705,2147771565,2147570889,2147570340,3504,3,13,65135
1350353757,5812,1019.0200195312500000,39.2540397644043000,567.9321899414062000,4.2398009300231930,55.7047195434570300,56,98,101,78,82,15537,0,0,0,0,2147124059,2147774866,2147571748,2147571894,3422,3,13,48967
1350357357,5810,1017.1400146484375000,39.1969413757324200,568.1271972656250000,4.2337460517883300,55.7194290161132800,54,97,102,78,82,15540,0,0,0,0,2147124525,2147772681,2147571364,2147570468,338,3,13,53549
1350360957,5810,1011.3400268554688000,39.7972297668457000,569.4541015625000000,4.1925239562988280,55.6371917724609400,55,99,100,77,83,15537,0,0,0,0,2147125696,2147775204,2147576091,2147573549,3577,3,13,34383
1350364557,5812,1020.7700195312500000,39.5325698852539060,568.0579223632812000,4.2358970642089840,55.6627693176269500,55,98,100,78,82,15537,0,0,0,0,2147127515,2147765312,2147573888,2147572406,81,3,13,10769
1350368157,5812,1018.8699951171875000,39.2863197326660160,567.4932250976562000,4.2534332275390625,55.6939086914062500,55,97,100,79,83,15535,0,0,0,0,2147124452,2147772955,2147574811,2147576118,20,3,13,11855
1350371757,5811,1017.1400146484375000,39.1658096313476560,567.7559814453125000,4.2452721595764160,55.7156295776367200,54,99,99,78,83,15534,0,0,0,0,2147124763,2147774308,2147571757,2147568457,3426,3,13,2935
1350375357,5810,1017.1599731445312000,39.4488296508789060,569.2691040039062000,4.1982731819152830,55.6898117065429700,55,99,100,77,82,15533,0,0,0,0,2147123520,2147774976,2147578697,2147571602,6,3,13,15066
1350378957,5809,1020.1900024414062000,39.8680305480957000,569.7794189453125000,4.1824169158935550,55.6311302185058600,54,99,101,78,82,15515,0,0,0,0,2147125878,2147776064,2147573878,2147571894,283,3,13,44405
1350382557,5810,1021.0800170898438000,39.3313903808593750,567.8156738281250000,4.2434182167053220,55.6904792785644500,55,97,100,78,82,15527,0,0,0,0,2147124827,2147770313,2147571638,2147573430,111,3,13,17806
1350386157,5813,1021.3099975585938000,39.0993614196777340,567.8059082031250000,4.2437229156494140,55.7286605834960940,55,97,100,77,82,15528,0,0,0,0,2147127168,2147773778,2147575094,2147571401,40,3,13,63788
1350389757,5808,1023.2800292968750000,39.2595405578613300,567.7246704101562000,4.2462439537048340,55.7077903747558600,56,100,101,78,84,15524,0,0,0,0,2147120905,2147775341,2147574765,2147570697,161,3,13,64450
1350393357,5809,1026.1800537109375000,38.7065887451171900,566.6448974609375000,4.2797741889953610,55.7731590270996100,56,97,101,78,82,15524,0,0,0,0,2147121728,2147776557,2147570715,2147571593,2980,3,13,53973
1350396957,5811,1025.2600097656250000,38.5128288269043000,566.6464233398438000,4.2797298431396480,55.8011093139648440,55,98,100,77,83,15523,0,0,0,0,2147123584,2147771840,2147573440,2147573577,3120,3,13,53785
1350400557,5809,1022.5800170898438000,38.3647308349609400,566.6693725585938000,4.2790150642395020,55.8249397277832000,55,97,100,77,82,15525,0,0,0,0,2147126162,2147774345,2147571757,2147569472,3368,3,13,24763
1350404157,5808,1015.3300170898438000,38.4250106811523440,567.7061767578125000,4.2468199729919430,55.8266716003418000,56,99,101,78,82,15524,0,0,0,0,2147122048,2147767771,2147570587,2147571446,677,3,12,9771
1350407757,5808,1018.5800170898438000,39.8670806884765600,569.8624267578125000,4.1798357963562010,55.6303710937500000,55,97,101,78,83,15523,0,0,0,0,2147127945,2147773174,2147570925,2147570496,110,3,13,54764
1350411357,5812,1021.8900146484375000,39.5553512573242200,569.3189697265625000,4.1967220306396480,55.6734199523925800,56,111,100,78,83,15523,0,0,0,0,2147126637,2147775177,2147573366,2147571721,20,3,12,10316
1350414957,5808,1023.4199829101562000,38.9295196533203100,568.2988281250000000,4.2284150123596190,55.7573204040527340,56,97,100,79,82,15522,0,0,0,0,2147123913,2147777764,2147575670,2147569819,102,3,13,56327
1350415556,5808,1021.7999877929688000,38.8119392395019500,568.2341918945312000,4.2304210662841800,55.7772293090820300,55,97,100,79,85,15517,0,0,0,0,2147122998,2147770240,2147573613,2147572681,143,3,13,3606
